Regional Weather Roundup
Issued by NWS Midland/Odessa, TX

Skip options and go directly to product.
Home | Oldest Version | Previous Version | Current Version | All | Text Only | Save Text | Print | Product List | Glossary On

Skip product version selection by date and time.   
158
ASUS44 KMAF 281410
RWRMAF
MIDLAND AREA WEATHER ROUNDUP
NATIONAL WEATHER SERVICE MIDLAND TX
900 AM CDT FRI AUG 28 2015

...IN SOUTHWEST TEXAS AND SOUTHEAST NEW MEXICO...

CITY           SKY/WX    TMP DP  RH WIND       PRES   REMARKS
ALPINE         MOSUNNY   76  51  41 SW8       30.21R
ANDREWS        FAIR      74  57  54 S10       30.07R
ARTESIA        MOSUNNY   73  57  56 NW7       30.08R
BIG SPRING     MOSUNNY   74  57  54 S13       30.07R
CARLSBAD       SUNNY     76  52  43 CALM      30.05R
DRYDEN           N/A     76  56  49 NW6       30.03R
FORT STOCKTON  SUNNY     76  56  49 S9        30.05R
GUAD PASS      MOSUNNY   72  50  45 W10       30.21R
HOBBS          MOSUNNY   73  55  53 S12       30.09R
MARFA          SUNNY     68  54  60 CALM      30.21R
MIDLAND AIRPK  MOSUNNY   78  55  44 S12       30.06S
MIDLAND INTL   MOSUNNY   77  55  46 S15       30.05R
ODESSA         MOSUNNY   77  55  46 S15       30.06R
PECOS          SUNNY     75  56  52 CALM      30.02R
PRESIDIO       NOT AVBL
SEMINOLE       MOSUNNY   75  56  52 S8        30.08R
SNYDER         SUNNY     76  59  54 S10       30.05S
WINK           PTSUNNY   76  57  51 SE10      30.02R
$$
...OTHER STATIONS IN TEXAS...

CITY           SKY/WX    TMP DP  RH WIND       PRES   REMARKS
ABILENE        SUNNY     77  59  53 S12G22    30.03R
AMARILLO       CLOUDY    72  59  63 SE10      30.06R
AUSTIN         MOSUNNY   75  64  68 CALM      30.02R
BROWNSVILLE    SUNNY     81  71  71 NW5       29.98R
CORPUS CHRISTI MOSUNNY   77  67  71 NW6       30.00R
DALLAS FTW     MOSUNNY   77  62  59 SE15      30.01S
DEL RIO        MOSUNNY   75  59  57 E8        30.00R
EL PASO        PTSUNNY   74  61  63 SE5       30.09R
HOUSTON INT    MOSUNNY   79  70  74 CALM      30.02R
LUBBOCK        PTSUNNY   77  57  50 SW15      30.05R
SAN ANGELO     SUNNY     74  58  57 S7        30.04R
SAN ANTONIO    MOSUNNY   79  61  53 W6        30.03S
WACO           SUNNY     76  63  64 E3        30.02R
WICHITA FALLS  NOT AVBL
$$
...OTHER LOCATIONS IN NEW MEXICO...

CITY           SKY/WX    TMP DP  RH WIND       PRES   REMARKS
ALAMAGORDO     SUNNY     72  55  56 S3        30.12R
ALBUQUERQUE    MOSUNNY   67  55  65 W5        30.23R
CANNON AFB     SUNNY     71  57  62 NW6       30.09S
CLOVIS         SUNNY     72  54  53 W7        30.11S
HOLLOMAN AFB   SUNNY     73  55  52 VRB1      30.10R
ROSWELL        MOSUNNY   75  58  55 NW3       30.08R
RUIDOSO        SUNNY     66  52  59 MISG      30.33R
SANTA FE       SUNNY     63  50  62 N12       30.27R
TRUTH OR CONSE MOSUNNY   74  53  48 N6        30.18R
TUCUMCARI      MOSUNNY   72  58  61 N3        30.11R
$$

USA.gov is the U.S. government's official web portal to all federal, state and local government web resources and services.